Regional Weather Roundup
Issued by NWS Grand Forks, ND

Current Version | Previous Version | Text Only | Print | Product List | Glossary On
Versions: 1 2 3 4 5 6 7 8 9 10 11 12 13 14 15 16 17 18 19 20 21 22 23 24 25 26 27 28 29 30 31 32 33 34 35 36 37 38 39 40 41 42 43 44 45 46 47 48 49 50
000
ASUS43 KFGF 180910
RWRFGF
PRAIRIE TO PINES  WEATHER ROUNDUP
NATIONAL WEATHER SERVICE EASTERN NORTH DAKOTA/GRAND FORKS ND
400 AM CDT FRI APR 18 2014

 **SATELLITE DATA USED TO AUGMENT SKY COVER AT AUTOMATED STATIONS**
 *****  WEATHER ACROSS EASTERN NORTH DAKOTA  *****

CITY           SKY/WX    TMP DP  RH WIND       PRES   REMARKS
GRAND FORKS    MOCLDY    30  20  66 SE6       30.28S WCI  24
GRAND FRKS AFB MOCLDY    28  20  71 E2        30.28S
GRAND FRKS NWS   N/A     32 N/A N/A SE7         N/A
DEVILS LAKE    CLOUDY    32  16  51 E13       30.22S WCI  22
FARGO          CLOUDY    33  23  66 E5        30.27F
WAHPETON ARPT  CLOUDY    34  23  64 SE5       30.29R
$$

 ***** WEATHER ACROSS CENTRAL AND WESTERN NORTH DAKOTA  *****

CITY           SKY/WX    TMP DP  RH WIND       PRES   REMARKS
BISMARCK       CLEAR     34  21  59 E14       30.09F WCI  25
MINOT          PTCLDY    31  21  66 E12       30.09F WCI  22
JAMESTOWN      CLOUDY    32  21  64 E13       30.19F WCI  22
MINOT AFB      CLEAR     30  23  75 SE16      30.09F WCI  19
GARRISON         N/A     34  23  64 SE14      30.06F WCI  25
WILLISTON      LGT RAIN  37  29  72 SE8       29.94F
DICKINSON      CLOUDY    33  22  63 SE17      29.92F WCI  22
HETTINGER      CLOUDY    33  23  66 E16       29.93F WCI  23
$$

 *****  OTHER AIRPORT OBSERVATIONS IN OUR AREA  *****

CITY           SKY/WX    TMP DP  RH WIND       PRES   REMARKS
WALHALLA       FAIR      27  19  74 SE5       30.30S WCI  21
GRAFTON AIRPOR FAIR      27  23  86 E7        30.29F WCI  19
VALLEY CITY AR FLURRIES  32  21  64 E9        30.24S WCI  24
CANDO          CLOUDY    32  18  55 SE16      30.22S WCI  21
CAVALIER APRT  PTSUNNY   27  19  74 E6        30.30S WCI  20
GWINNER        PTSUNNY   34  25  69 E8        30.24S
SHEYENNE NWR     N/A     33  22  63 E6        29.95S
ROLLA          CLOUDY    28  16  59 SE16      30.20F WCI  17
 ***** THE ABOVE OBSERVATIONS ARE NON NWS ARE NOT QUALITY
       CONTROLLED AND MAY MIS-REPORT RAIN FOR SNOW...
$$

  *****  WEATHER ACROSS NORTHERN MINNESOTA  *****

CITY           SKY/WX    TMP DP  RH WIND       PRES   REMARKS
FLAG ISLAND    CLEAR     19  16  86 CALM      30.31S
WARROAD        CLEAR     19  14  79 CALM      30.32S
ROSEAU         CLEAR     25  14  63 CALM      30.31S
HALLOCK        CLOUDY    28  18  64 E8        30.30S WCI  20
THF RVR FALLS  CLEAR     28  12  50 E8        30.30S WCI  20
BAUDETTE       CLEAR     19  14  81 CALM      30.31S
WASKISH        CLEAR     18  18 100 CALM      30.31S
CROOKSTON      CLEAR     30  16  55 SE8       30.30R WCI  23
$$
  *****  WEATHER ACROSS CENTRAL AND WEST MINNESOTA  *****

CITY           SKY/WX    TMP DP  RH WIND       PRES   REMARKS
FOSSTON        CLEAR     23  12  63 E3        30.28F
BEMIDJI        PTCLDY    25  17  73 CALM      30.29S
PARK RAPIDS    FAIR      28  19  69 E3        30.27S
ELBOW LAKE     CLOUDY    33  24  70 SE5       30.28S
WADENA         MOCLDY    27  18  69 CALM      30.28R
DETROIT LAKES  PTCLDY    30  19  64 CALM      30.27S
MOORHEAD       NOT AVBL
FERGUS FALLS   CLOUDY    34  19  55 CALM      30.26S
MORRIS MN      CLOUDY    30  27  86 SE6       30.28F WCI  24
STAPLES        CLOUDY    27  21  80 CALM      30.28S
$$
  *****  WEATHER ELSEWHERE ACROSS MINNESOTA  *****

CITY           SKY/WX    TMP DP  RH WIND       PRES   REMARKS
DULUTH         MOCLDY    23  18  81 CALM      30.30S
INTRNTL FALLS  CLEAR     18  15  88 CALM      30.31F
ELY            CLEAR     12  10  92 CALM      30.31R
CLOQUET        PTCLDY    21  19  93 CALM      30.31R
WHEATON        CLOUDY    34  30  86 E6        30.30R
BRAINERD       CLOUDY    34  22  61 CALM      30.29S
HIBBING        PTCLDY    19  15  84 CALM      30.31S
ALEXANDRIA     CLOUDY    30  24  78 CALM      30.29R
SAINT CLOUD    CLOUDY    22  19  89 NE3       30.31R
MINNEAPOLIS    PTCLDY    27  26  96 CALM      30.33S
$$

  *****  WEATHER ACROSS SOUTH DAKOTA  *****

CITY           SKY/WX    TMP DP  RH WIND       PRES   REMARKS
SIOUX FALLS    CLEAR     33  27  78 E9        30.24S
BROOKINGS      NOT AVBL
WATERTOWN      CLOUDY    33  14  45 SE6       30.21F
HURON          CLOUDY    34  26  72 SE14G22   30.17F WCI  25
SISSETON         N/A     32  25  75 SE7       30.25S
ABERDEEN       CLOUDY    34  19  54 E13       30.18F WCI  25
MITCHELL       PTCLDY    35  27  72 SE17      30.19F WCI  25
PIERRE         CLOUDY    37  26  64 SE16      30.01F
MOBRIDGE       CLOUDY    35  24  64 SE18      30.03F WCI  24
RAPID CITY     CLEAR     35  32  88 SE3       29.86F
$$

  *****  SOME WEATHER IN NEARBY STATES *****

CITY           SKY/WX    TMP DP  RH WIND       PRES   REMARKS
GLASGOW MT     CLOUDY    41  36  82 E18       29.75F
GREAT FALLS MT LGT RAIN  44  43  96 W8        29.67R
CHEYENNE WY    PTCLDY    37  30  75 W12       29.99F
SCOTTSBLUFF NE PTCLDY    45  34  65 E8        29.92F
OMAHA NE       PTCLDY    33  27  78 CALM      30.26S
DES MOINES IA  PTCLDY    36  29  75 E3        30.30S
DAVENPORT IA   CLEAR     30  28  92 N6        30.31R FOG     WCI  24
CHICAGO IL     PTCLDY    44  36  73 NE10      30.24S
EAU CLAIRE WI  CLEAR     24  22  91 CALM      30.33R
LA CROSSE WI   CLEAR     31  25  78 NE3       30.33R
$$

  *****  SOME NATIONAL WEATHER *****

CITY           SKY/WX    TMP DP  RH WIND       PRES   REMARKS
LA GUARDIA NY  MOCLDY    36  25  64 E13       30.50F
RALEIGH NC     MOCLDY    39  35  86 NE5       30.42F
ATLANTA GA     CLOUDY    55  37  50 E10       30.27F
NEW ORLEANS LA CLOUDY    63  60  90 NE8       30.06R
OKLAHOMA CITY  PTCLDY    47  39  74 N6        30.23F
ALBUQUERQUE NM PTCLDY    50  27  40 N9        30.15F
SALT LAKE CITY CLOUDY    64  26  23 S22G30    29.81S
LOS ANGELES CA CLOUDY    62  53  72 E8        29.89F
BOISE ID       CLOUDY    49  39  68 W12       29.90R
SEATTLE WA     CLOUDY    45  39  79 SW14      29.96R
$$

*** WEATHER ACROSS MANITOBA...SASKATCHEWAN AND ONTARIO ***
                ***ONTARIO***

CITY           SKY/WX    TMP DP  RH WIND       PRES   REMARKS
GERALDTON      LGT SNOW  27  25  93 N5        30.25R WCI  21
THUNDER BAY    PTCLDY    25  23  93 SW7       30.31S WCI  17
SIOUX LOOKOUT  CLEAR     10   9  92 SE2       30.31S
TORONTO        MOCLDY    43  30  61 E5        30.27F
BIG TROUT LK   CLEAR      7   0  72 W2        30.31R
PICKLE LAKE    NOT AVBL
DRYDEN         CLEAR     21  19  93 SW7       30.31S WCI  13
KENORA         CLEAR     19   5  53 S3        30.31S
$$
                *** MANITOBA***

CITY           SKY/WX    TMP DP  RH WIND       PRES   REMARKS
BRANDON        CLOUDY    28  18  64 E10       30.24F WCI  19
DAUPHIN        CLEAR     25  16  68 E8        30.24F WCI  16
ISLAND LAKE    CLEAR     12   9  85 CALM      30.35S
PILOT MOUND      N/A     28  16  59 E13         N/A  WCI  18
THE PAS        CLEAR     18   7  62 SE6       30.26F WCI   9
THOMPSON       CLEAR      9   1  72 CALM      30.32S
WINNIPEG       CLEAR     21   9  58 E3        30.33S
LYNN LAKE      CLEAR      9  -2  61 CALM      30.26R
CHURCHILL      FLURRIES   7   3  85 NW5       30.38S WCI  -2
GILLAM         CLEAR      7   3  85 CALM      30.34R
$$
                ***SASKATCHEWAN***

CITY           SKY/WX    TMP DP  RH WIND       PRES   REMARKS
ESTEVAN        CLOUDY    32  25  74 E17       30.01F WCI  21
KINDERSLEY     LGT RAIN  36  34  93 E21       29.69F
LLOYDMINSTER   FRZ RAIN  32  30  93 SE18G25   29.75F WCI  20
PRINCE ALBERT  CLOUDY    28  18  64 E12G18    30.02F WCI  18
REGINA         CLOUDY    34  23  64 SE21G29   29.94F WCI  22
YORKTON        PTCLDY    27  19  74 SE15      30.11F WCI  15
N. BATTLEFORD  LGT SNOW  32  28  86 E24G30    29.84S WCI  19
LA RONGE       CLEAR     25   9  50 E12       30.12F WCI  14
SASKATOON      FLURRIES  32  27  80 SE21G31   29.89F WCI  20
SWIFT CURRENT  CLOUDY    36  32  87 SE20G28   29.71F
$$
NOTE: THESE ARE AUTOMATED STATIONS WITH LIMITED QUALITY CONTROL
      "FAIR" INDICATES FEW OR NO CLOUDS BELOW 12,000 FEET WITH NO
      SIGNIFICANT WEATHER AND/OR OBSTRUCTIONS TO VISIBILITY.
      SKY/WX - SKY CONDITION AND SIGNIFICANT WEATHER.
      TMP - AIR TEMPERATURE.    DP   - DEWPOINT TEMPERATURE.
      RH  - RELATIVE HUMIDITY.  PRES - PRESSURE.
      HX  - HEAT INDEX.         WCI  - WIND CHILL INDEX.
$



USA.gov is the U.S. government's official web portal to all federal, state and local government web resources and services.